This demonstration page uses our WeatherBlox Daily Observations layout. Learn more.

38.88101, -77.10428

Hourly Observations for November 16, 2019

Temp ( °F °C ) Dew Point ( °F °C ) Humidity (%) Winds ( mph kmh ) Pressure ( in mb ) Visibility ( mi km ) Precip ( " mm )
12:52 am 00:52 Mostly Clear 42 5.6 27 -2.8 55 55 N 14 22 30.24 1024 10 16.09344 0 0
1:52 am 01:52 Mostly Clear 41 5 28 -2.2 60 60 N 15 24 30.24 1024 10 16.09344 0 0
2:52 am 02:52 Partly Cloudy 40 4.4 29 -1.7 65 65 N 13 20 30.27 1025 10 16.09344 0 0
3:52 am 03:52 Partly Cloudy 38 3.3 28 -2.2 68 68 N 12 19 30.27 1025 10 16.09344 0 0
4:52 am 04:52 Mostly Clear 37 2.8 29 -1.7 73 73 N 14 22 30.27 1025 10 16.09344 0 0
5:52 am 05:52 Clear 38 3.3 28 -2.2 68 68 N 15 24 30.3 1026 10 16.09344 0 0
6:52 am 06:52 Mostly Sunny 37 2.8 27 -2.8 67 67 N 14 22 30.33 1027 10 16.09344 0 0
7:52 am 07:52 Mostly Sunny 39 3.9 27 -2.8 62 62 N 17 28 30.36 1028 10 16.09344 0 0
8:52 am 08:52 Mostly Sunny 41 5 27 -2.8 57 57 NNE 20 31 30.36 1028 10 16.09344 0 0
9:52 am 09:52 Mostly Sunny 44 6.7 26 -3.3 49 49 NE 14 22 30.36 1028 10 16.09344 0 0
10:52 am 10:52 Partly Cloudy 45 7.2 26 -3.3 48 48 NE 15 24 30.39 1029 10 16.09344 0 0
11:52 am 11:52 Partly Cloudy 46 7.8 26 -3.3 46 46 ENE 18 30 30.36 1028 10 16.09344 0 0
12:52 pm 12:52 Mostly Sunny 46 7.8 21 -6.1 37 37 NE 17 28 30.33 1027 10 16.09344 0 0
1:52 pm 13:52 Mostly Sunny 47 8.3 17 -8.3 30 30 NE 14 22 30.33 1027 10 16.09344 0 0
2:52 pm 14:52 Mostly Sunny 46 7.8 15 -9.4 29 29 NE 14 22 30.33 1027 10 16.09344 0 0
3:52 pm 15:52 Mostly Sunny 44 6.7 16 -8.9 32 32 NE 15 24 30.33 1027 10 16.09344 0 0
4:52 pm 16:52 Mostly Sunny 42 5.6 16 -8.9 35 35 NE 13 20 30.36 1028 10 16.09344 0 0
5:52 pm 17:52 Mostly Clear 40 4.4 15 -9.4 36 36 NE 13 20 30.36 1028 10 16.09344 0 0
6:52 pm 18:52 Mostly Clear 40 4.4 14 -10 35 35 NE 12 19 30.36 1028 10 16.09344 0 0
7:52 pm 19:52 Cloudy 40 4.4 17 -8.3 40 40 NE 15 24 30.36 1028 10 16.09344 0 0
8:52 pm 20:52 Mostly Cloudy 39 3.9 19 -7.2 45 45 NE 15 24 30.36 1028 10 16.09344 0 0
9:52 pm 21:52 Mostly Cloudy 39 3.9 18 -7.8 43 43 NNE 14 22 30.36 1028 10 16.09344 0 0
10:52 pm 22:52 Cloudy 39 3.9 15 -9.4 38 38 NNE 15 24 30.36 1028 10 16.09344 0 0
11:52 pm 23:52 Cloudy 39 3.9 14 -10 36 36 NNE 16 26 30.33 1027 10 16.09344 0 0

Powered by AerisWeather